Date,TemperatureHighF,TemperatureAvgF,TemperatureLowF,DewpointHighF,DewpointAvgF,DewpointLowF,HumidityHigh,HumidityAvg,HumidityLow,PressureMaxIn,PressureMinIn,WindSpeedMaxMPH,WindSpeedAvgMPH,GustSpeedMaxMPH,PrecipitationSumIn
2013-4-1,60,50,43,50,46,42,97,85,60,30.13,29.95,12,2,17,0.00
2013-4-2,56,48,42,48,45,41,97,87,69,30.17,30.13,11,2,14,0.00
2013-4-3,58,50,42,48,45,42,98,84,63,30.18,29.94,6,1,7,0.00
2013-4-4,54,51,48,53,49,45,97,93,88,29.93,29.61,22,4,30,0.42
2013-4-5,57,52,48,51,49,47,97,88,75,29.82,29.68,20,8,30,0.23
2013-4-6,55,50,46,48,45,42,96,84,66,29.87,29.65,19,8,29,0.17
2013-4-7,47,44,41,44,42,40,97,93,83,29.87,29.51,8,2,13,0.76
2013-4-8,55,48,43,48,44,42,98,87,68,30.24,29.87,8,2,11,0.05
2013-4-9,54,48,40,44,42,38,99,82,55,30.32,30.14,17,5,20,0.00
2013-4-10,58,52,46,53,47,43,96,83,71,30.23,29.90,16,6,24,0.15
2013-4-11,51,46,43,45,42,39,95,85,64,30.28,30.18,8,2,10,0.05
2013-4-12,46,43,39,44,40,38,98,91,75,30.18,29.64,15,6,26,0.06
2013-4-13,50,43,36,43,40,34,98,88,71,29.98,29.72,16,3,22,0.33
2013-4-14,51,43,37,41,39,33,99,86,52,29.99,29.90,9,2,13,0.06
2013-4-15,53,44,34,41,38,34,99,82,55,30.16,29.93,16,3,20,0.00
2013-4-16,56,45,35,43,36,27,99,73,34,30.38,30.17,12,3,15,0.00
2013-4-17,58,47,36,44,40,34,95,78,46,30.43,30.38,10,3,18,0.00
2013-4-18,52,48,43,48,44,39,91,86,80,30.43,30.15,16,6,27,0.00
2013-4-19,53,51,50,51,49,48,97,93,90,30.16,30.03,19,3,27,0.26
2013-4-20,54,49,46,50,47,45,98,93,83,30.25,30.16,5,2,8,0.10
2013-4-21,52,46,40,46,43,39,98,88,67,30.35,30.21,13,3,16,0.06
2013-4-22,58,48,36,43,33,21,97,62,25,30.50,30.36,15,4,19,0.00
2013-4-23,59,48,33,41,33,25,91,62,27,30.41,30.23,13,2,15,0.00
2013-4-24,66,53,38,44,38,32,95,61,29,30.31,30.05,10,2,14,0.00
2013-4-25,69,55,40,47,41,36,89,63,36,30.13,30.03,8,2,9,0.00
2013-4-26,63,52,43,52,46,40,97,82,48,30.25,30.14,11,2,13,0.00
2013-4-27,58,53,49,49,47,44,91,80,71,30.18,30.11,19,3,22,0.00
2013-4-28,56,50,47,48,46,42,94,85,65,30.20,29.92,17,4,24,0.01
2013-4-29,54,49,44,47,40,33,94,75,46,30.14,29.88,15,5,15,0.00
2013-4-30,51,45,36,39,36,33,95,73,52,30.43,30.14,9,2,14,0.00